Location: Buchloe
(48.0161°N, 10.7316°E)
Time: 19:44:48
(UTC+02:00)

ISS - Pass Details

Date: 21 May 2018
Orbit: 402 x 407 km, 51.6° (Epoch: 27 May)

Event Time Altitude Azimuth Distance (km) Brightness Sun altitude
Rises 23:50:47 0° 258° (WSW) 2,314 0.1 -19.2°
Reaches altitude 10° 23:52:53 10° 261° (W) 1,456 -0.9 -19.3°
Maximum altitude 23:56:07 61° 344° (NNW) 461 -3.4 -19.5°
Drops below altitude 10° 23:59:21 10° 65° (ENE) 1,458 -1.0 -19.7°
Sets 00:01:27 0° 69° (ENE) 2,319 0.1 -19.8°
